Location: Bjelajci
(45.0103°N, 16.1758°E)
Time: 09:52:37
(UTC+00:00)

SeaSat 1 - Pass Details

Date: 14 July 2020
Orbit: 744 x 747 km, 108.0° (Epoch: 07 August)

Event Time Altitude Azimuth Distance (km) Brightness Sun altitude
Rises 02:13:42 0° 18° (NNE) 3,201 7.0 -10.3°
Reaches altitude 10° 02:16:18 10° 5° (N) 2,274 5.8 -9.9°
Maximum altitude 02:20:16 25° 312° (NW) 1,478 4.0 -9.4°
Drops below altitude 10° 02:24:15 10° 258° (WSW) 2,265 4.4 -8.9°
Enters shadow 02:24:47 - 254° (WSW) 2,444 4.6 -8.9°
